SAS1693 EKCH-LOWW

Flight info

Callsign SAS1693
Flight time N/A
Altitude 35000
Route SALLO M44 KOGIM DCT LUROS DCT HDO DCT EVIKU DCT BITSI DCT MIKOV MIKOV8W
Aircraft B738/M-SDE2E3FGHIRWXY/LB1

Departure

Time 2026-04-23 16:41
Airport Copenhagen Kastrup Airport (EKCH)

Arrival

Time N/A
Airport Vienna International Airport (LOWW)
Time Latitude Longitude Altitude Speed Heading
2026-04-23 16:10 55.62519 12.65685 18 ft 0 kts
2026-04-23 16:28 55.62510 12.65685 18 ft 2 kts
2026-04-23 16:28 55.62501 12.65685 18 ft 2 kts
2026-04-23 16:28 55.62486 12.65688 18 ft 2 kts 341°
2026-04-23 16:28 55.62472 12.65699 17 ft 2 kts 328°
2026-04-23 16:29 55.62461 12.65715 17 ft 2 kts 313°
2026-04-23 16:29 55.62452 12.65736 17 ft 2 kts 298°
2026-04-23 16:29 55.62446 12.65760 17 ft 2 kts 284°
2026-04-23 16:29 55.62444 12.65783 17 ft 0 kts 271°
2026-04-23 16:30 55.62444 12.65795 17 ft 0 kts 268°
2026-04-23 16:33 55.62444 12.65788 17 ft 1 kts 269°
2026-04-23 16:33 55.62443 12.65759 17 ft 6 kts 269°
2026-04-23 16:33 55.62443 12.65662 18 ft 7 kts 269°
2026-04-23 16:33 55.62442 12.65541 18 ft 10 kts 269°
2026-04-23 16:34 55.62441 12.65422 18 ft 9 kts 270°
2026-04-23 16:34 55.62422 12.65336 18 ft 7 kts 212°
2026-04-23 16:34 55.62367 12.65331 18 ft 10 kts 178°
2026-04-23 16:34 55.62302 12.65302 17 ft 10 kts 232°
2026-04-23 16:35 55.62246 12.65201 16 ft 16 kts 205°
2026-04-23 16:35 55.62141 12.65103 15 ft 16 kts 213°
2026-04-23 16:35 55.62048 12.64993 15 ft 15 kts 214°
2026-04-23 16:35 55.61959 12.64893 15 ft 15 kts 213°
2026-04-23 16:36 55.61857 12.64776 15 ft 18 kts 213°
2026-04-23 16:36 55.61747 12.64650 15 ft 18 kts 213°
2026-04-23 16:36 55.61646 12.64531 15 ft 16 kts 213°
2026-04-23 16:36 55.61550 12.64422 15 ft 16 kts 213°
2026-04-23 16:37 55.61445 12.64301 15 ft 19 kts 213°
2026-04-23 16:37 55.61328 12.64166 15 ft 20 kts 213°
2026-04-23 16:37 55.61215 12.64037 16 ft 18 kts 213°
2026-04-23 16:37 55.61107 12.63913 16 ft 17 kts 213°
2026-04-23 16:38 55.61008 12.63799 15 ft 16 kts 213°
2026-04-23 16:38 55.60919 12.63696 16 ft 15 kts 213°
2026-04-23 16:38 55.60822 12.63584 15 ft 17 kts 213°
2026-04-23 16:38 55.60717 12.63466 15 ft 17 kts 213°
2026-04-23 16:39 55.60619 12.63340 14 ft 18 kts 221°
2026-04-23 16:39 55.60522 12.63188 14 ft 17 kts 222°
2026-04-23 16:39 55.60420 12.63126 13 ft 16 kts 152°
2026-04-23 16:39 55.60342 12.63285 12 ft 18 kts 108°
2026-04-23 16:40 55.60408 12.63457 11 ft 18 kts 41°
2026-04-23 16:40 55.60634 12.63799 15 ft 76 kts 42°
2026-04-23 16:40 55.61198 12.64678 15 ft 137 kts 41°
2026-04-23 16:40 55.62028 12.65969 170 ft 172 kts 40°
2026-04-23 16:41 55.62947 12.67434 627 ft 190 kts 38°
2026-04-23 16:41 55.63971 12.68949 1301 ft 197 kts 37°
2026-04-23 16:41 55.64968 12.70623 1997 ft 203 kts 40°
2026-04-23 16:41 55.65962 12.72469 2146 ft 209 kts 41°
2026-04-23 16:42 55.66998 12.73912 2487 ft 174 kts 25°
2026-04-23 16:42 55.67996 12.75112 2832 ft 184 kts 36°
2026-04-23 16:42 55.68830 12.77060 3149 ft 215 kts 60°
2026-04-23 16:42 55.69242 12.79733 3546 ft 239 kts 78°
2026-04-23 16:43 55.69221 12.82780 3932 ft 262 kts 95°
2026-04-23 16:43 55.68613 12.85892 4403 ft 280 kts 120°
2026-04-23 16:43 55.67237 12.88392 4982 ft 288 kts 147°
2026-04-23 16:43 55.65410 12.89926 5603 ft 293 kts 160°
2026-04-23 16:44 55.63508 12.91100 6227 ft 295 kts 165°
2026-04-23 16:44 55.61476 12.91654 6714 ft 298 kts 184°
2026-04-23 16:44 55.59481 12.90780 7385 ft 295 kts 212°
2026-04-23 16:44 55.57875 12.88669 8096 ft 291 kts 229°
2026-04-23 16:45 55.56458 12.86125 8802 ft 294 kts 231°
2026-04-23 16:45 55.55048 12.83531 9463 ft 298 kts 232°
2026-04-23 16:45 55.53559 12.80896 10106 ft 305 kts 227°
2026-04-23 16:45 55.51816 12.78721 10570 ft 323 kts 210°
2026-04-23 16:46 55.49573 12.77668 10860 ft 347 kts 186°
2026-04-23 16:46 55.47104 12.77912 11219 ft 364 kts 174°
2026-04-23 16:46 55.44537 12.78517 11582 ft 380 kts 173°
2026-04-23 16:46 55.41882 12.79164 11885 ft 395 kts 173°
2026-04-23 16:47 55.39142 12.79811 12175 ft 410 kts 173°
2026-04-23 16:47 55.36259 12.80497 12445 ft 425 kts 171°
2026-04-23 16:47 55.33355 12.81734 12679 ft 438 kts 160°
2026-04-23 16:47 55.30648 12.84230 13200 ft 441 kts 144°
2026-04-23 16:48 55.28207 12.87406 13781 ft 443 kts 140°
2026-04-23 16:48 55.25819 12.90819 14375 ft 446 kts 138°
2026-04-23 16:48 55.23428 12.94328 14965 ft 450 kts 137°
2026-04-23 16:48 55.21054 12.97814 15591 ft 452 kts 138°
2026-04-23 16:49 55.19437 13.00159 15995 ft 455 kts 138°
2026-04-23 16:49 55.16136 13.04866 16780 ft 460 kts 139°
2026-04-23 16:49 55.13650 13.08355 17341 ft 463 kts 139°
2026-04-23 16:49 55.11134 13.11856 17866 ft 467 kts 140°
2026-04-23 16:50 55.08590 13.15373 18491 ft 469 kts 140°
2026-04-23 16:50 55.06020 13.18916 18988 ft 473 kts 140°
2026-04-23 16:50 55.03444 13.22459 19473 ft 478 kts 140°
2026-04-23 16:50 55.00850 13.26021 19972 ft 482 kts 140°
2026-04-23 16:51 54.98223 13.29623 20500 ft 485 kts 140°
2026-04-23 16:51 54.95531 13.33189 21003 ft 490 kts 142°
2026-04-23 16:51 54.92657 13.36413 21428 ft 496 kts 149°
2026-04-23 16:51 54.89526 13.38918 21963 ft 500 kts 158°
2026-04-23 16:52 54.86180 13.40666 22412 ft 503 kts 166°
2026-04-23 16:52 54.82753 13.41870 22868 ft 506 kts 171°
2026-04-23 16:52 54.79289 13.42780 23371 ft 508 kts 172°
2026-04-23 16:52 54.75774 13.43577 23787 ft 512 kts 173°
2026-04-23 16:53 54.72202 13.44356 24267 ft 515 kts 173°
2026-04-23 16:53 54.68669 13.45138 24675 ft 518 kts 173°
2026-04-23 16:53 54.65114 13.45957 25130 ft 521 kts 172°
2026-04-23 16:53 54.61506 13.46822 25621 ft 523 kts 172°
2026-04-23 16:54 54.57917 13.47714 26329 ft 520 kts 171°
2026-04-23 16:54 54.54359 13.48622 26962 ft 518 kts 171°
2026-04-23 16:54 54.50841 13.49535 27520 ft 517 kts 171°
2026-04-23 16:54 54.47305 13.50453 28074 ft 516 kts 171°
2026-04-23 16:55 54.43773 13.51356 28584 ft 516 kts 171°
2026-04-23 16:55 54.40250 13.52247 29074 ft 516 kts 171°
2026-04-23 16:55 54.36702 13.53138 29659 ft 514 kts 171°
2026-04-23 16:55 54.33198 13.54014 30251 ft 511 kts 171°
2026-04-23 16:56 54.29679 13.54901 30645 ft 512 kts 170°
2026-04-23 16:56 54.26164 13.55828 31141 ft 511 kts 169°
2026-04-23 16:56 54.22721 13.56767 31617 ft 509 kts 169°
2026-04-23 16:56 54.19233 13.57735 32089 ft 508 kts 169°
2026-04-23 16:57 54.15723 13.58714 32511 ft 507 kts 169°
2026-04-23 16:57 54.12285 13.59671 32905 ft 507 kts 169°
2026-04-23 16:57 54.08758 13.60649 33350 ft 506 kts 169°
2026-04-23 16:57 54.05265 13.61612 33772 ft 505 kts 169°
2026-04-23 16:58 54.01804 13.62561 34172 ft 504 kts 169°
2026-04-23 16:58 53.98333 13.63510 34548 ft 504 kts 169°
2026-04-23 16:58 53.94862 13.64455 34993 ft 502 kts 169°
2026-04-23 16:58 53.91413 13.65390 35143 ft 504 kts 170°
2026-04-23 16:59 53.84449 13.67272 35148 ft 499 kts 170°
2026-04-23 16:59 53.77585 13.69122 35151 ft 501 kts 170°
2026-04-23 17:00 53.70695 13.70973 35144 ft 501 kts 170°
2026-04-23 17:00 53.63799 13.72819 35144 ft 500 kts 170°
2026-04-23 17:01 53.56910 13.74655 35143 ft 500 kts 170°
2026-04-23 17:01 53.50067 13.76475 35146 ft 500 kts 170°
2026-04-23 17:02 53.43229 13.78287 35145 ft 501 kts 170°
2026-04-23 17:02 53.36362 13.80101 35147 ft 500 kts 170°
2026-04-23 17:03 53.29505 13.81908 35145 ft 500 kts 169°
2026-04-23 17:03 53.22635 13.83711 35149 ft 499 kts 169°
2026-04-23 17:04 53.15708 13.85523 35148 ft 499 kts 169°
2026-04-23 17:04 53.08849 13.87310 35149 ft 499 kts 169°
2026-04-23 17:05 53.01982 13.89095 35150 ft 500 kts 169°
2026-04-23 17:05 52.95118 13.90874 35150 ft 499 kts 169°
2026-04-23 17:06 52.88291 13.92636 35151 ft 499 kts 169°
2026-04-23 17:06 52.81419 13.94403 35149 ft 500 kts 169°
2026-04-23 17:07 52.74606 13.96151 35152 ft 498 kts 169°
2026-04-23 17:07 52.67748 13.97903 35151 ft 500 kts 169°
2026-04-23 17:08 52.60876 13.99654 35149 ft 499 kts 169°
2026-04-23 17:08 52.53991 14.01404 35149 ft 500 kts 169°
2026-04-23 17:09 52.47179 14.03130 35149 ft 499 kts 169°
2026-04-23 17:09 52.40314 14.04864 35149 ft 499 kts 169°
2026-04-23 17:10 52.33492 14.06582 35150 ft 499 kts 168°
2026-04-23 17:10 52.26595 14.08311 35148 ft 499 kts 168°
2026-04-23 17:11 52.19754 14.10022 35149 ft 499 kts 168°
2026-04-23 17:11 52.12923 14.11724 35147 ft 499 kts 168°
2026-04-23 17:12 52.06052 14.13432 35149 ft 498 kts 168°
2026-04-23 17:12 51.99210 14.15128 35150 ft 499 kts 168°
2026-04-23 17:13 51.92354 14.16822 35150 ft 498 kts 168°
2026-04-23 17:13 51.85486 14.18451 35155 ft 499 kts 169°
2026-04-23 17:14 51.78602 14.19858 35153 ft 500 kts 170°
2026-04-23 17:14 51.71714 14.21205 35155 ft 500 kts 170°
2026-04-23 17:15 51.64834 14.22556 35153 ft 498 kts 169°
2026-04-23 17:15 51.57880 14.23940 35153 ft 499 kts 169°
2026-04-23 17:16 51.50963 14.25325 35156 ft 498 kts 169°
2026-04-23 17:16 51.44149 14.26692 35159 ft 497 kts 169°
2026-04-23 17:17 51.37287 14.28067 35154 ft 499 kts 169°
2026-04-23 17:17 51.30382 14.29446 35155 ft 498 kts 169°
2026-04-23 17:18 51.20086 14.31492 35157 ft 497 kts 169°
2026-04-23 17:19 51.13213 14.32853 35156 ft 497 kts 169°
2026-04-23 17:19 51.06322 14.34215 35157 ft 498 kts 169°
2026-04-23 17:20 50.99418 14.35575 35155 ft 498 kts 168°
2026-04-23 17:21 50.85692 14.39131 35160 ft 493 kts 161°
2026-04-23 17:21 50.75787 14.43005 35160 ft 492 kts 161°
2026-04-23 17:22 50.65795 14.46850 35163 ft 492 kts 161°
2026-04-23 17:23 50.55832 14.50555 35165 ft 493 kts 161°
2026-04-23 17:24 50.46096 14.55302 35171 ft 478 kts 144°
2026-04-23 17:24 50.38594 14.64965 35173 ft 463 kts 128°
2026-04-23 17:25 50.31700 14.75654 35173 ft 464 kts 128°
2026-04-23 17:26 50.22478 14.89745 35172 ft 462 kts 129°
2026-04-23 17:27 50.15551 15.00145 35170 ft 461 kts 129°
2026-04-23 17:27 50.10896 15.07102 35169 ft 465 kts 129°
2026-04-23 17:28 50.06241 15.14029 35168 ft 463 kts 129°
2026-04-23 17:28 50.01603 15.20908 35163 ft 463 kts 128°
2026-04-23 17:29 49.96932 15.27821 35157 ft 463 kts 129°
2026-04-23 17:30 49.89961 15.38099 35154 ft 463 kts 129°
2026-04-23 17:30 49.82968 15.48369 35147 ft 465 kts 128°
2026-04-23 17:31 49.75587 15.59158 35139 ft 463 kts 129°
2026-04-23 17:31 49.67474 15.70969 35137 ft 466 kts 129°
2026-04-23 17:32 49.58838 15.83472 35131 ft 464 kts 129°
2026-04-23 17:32 49.51831 15.93565 35130 ft 462 kts 129°
2026-04-23 17:33 49.47111 16.00346 35127 ft 463 kts 129°
2026-04-23 17:33 49.42419 16.07065 34778 ft 459 kts 129°
2026-04-23 17:34 49.40091 16.10384 34239 ft 454 kts 129°
2026-04-23 17:34 49.37777 16.13680 33610 ft 453 kts 129°
2026-04-23 17:34 49.33158 16.20179 32134 ft 457 kts 131°
2026-04-23 17:35 49.30652 16.23248 31334 ft 464 kts 137°
2026-04-23 17:35 49.25023 16.28317 29665 ft 476 kts 146°
2026-04-23 17:35 49.22075 16.30541 28774 ft 479 kts 148°
2026-04-23 17:36 49.19031 16.32741 27832 ft 483 kts 149°
2026-04-23 17:36 49.15979 16.34914 26858 ft 486 kts 149°
2026-04-23 17:36 49.12902 16.37102 25839 ft 489 kts 149°
2026-04-23 17:36 49.09849 16.39285 24812 ft 492 kts 149°
2026-04-23 17:37 49.06789 16.41483 24023 ft 489 kts 149°
2026-04-23 17:37 49.03711 16.43701 23392 ft 482 kts 149°
2026-04-23 17:37 48.97699 16.48060 21995 ft 474 kts 149°
2026-04-23 17:38 48.94754 16.50203 21264 ft 472 kts 149°
2026-04-23 17:38 48.91799 16.52358 20517 ft 469 kts 149°
2026-04-23 17:38 48.88874 16.54490 19753 ft 467 kts 149°
2026-04-23 17:38 48.85964 16.56611 19003 ft 464 kts 150°